contact:dominique.lefevre@mio.osupytheas.fr, maurice.libes@osupytheas.fr, didier.mallarino@osupytheas.fr
Project:EMSO http://www.emso-fr.org/EMSO-France
Depth: 2436.0 m
Title:EMSO Ligure Ouest : Data MII capteur AQUADOPP
Date,Latitude,Longitude,X_East,Y_North,Z_Up,Amplitude_X,Amplitude_Y,Amplitude_Z,Batterie,SoundSpeed,Heading,Pitch,Roll,Pressure,TIS,Speed,Direction
, degrees North, degrees East, m.s-1, m.s-1,m.s-1, 1, 1, 1, Volt, m.s-1, degree, degree, degree, dbar, degree_C, m.s-1, degree
2019-07-05T00:09:03,42.805,6.029,-0.022,0.024,0.001,101.0,109.0,98.0,13.3,1505.2,323.0,-0.8,1.9,2470.239,13.29,0.032,317.5
2019-07-05T00:12:04,42.805,6.029,-0.051,0.016,-0.002,101.0,109.0,99.0,13.4,1505.2,323.3,-0.8,1.9,2470.237,13.3,0.053,287.4
2019-07-05T00:15:05,42.805,6.029,-0.042,0.011,-0.018,103.0,106.0,99.0,13.4,1505.3,326.6,-0.7,1.9,2470.198,13.31,0.043,284.7
2019-07-05T00:18:06,42.805,6.029,-0.051,0.031,-0.009,99.0,108.0,98.0,13.3,1505.3,327.8,-0.7,1.8,2470.198,13.32,0.059,301.3
2019-07-05T00:21:07,42.805,6.029,-0.054,0.006,-0.05,100.0,107.0,97.0,13.3,1505.3,327.6,-0.8,1.8,2470.196,13.32,0.054,276.3
2019-07-05T00:24:08,42.805,6.029,-0.051,0.015,-0.031,102.0,108.0,97.0,13.4,1505.3,325.8,-0.7,1.9,2470.19,13.32,0.053,286.4
2019-07-05T00:27:09,42.805,6.029,-0.045,0.012,-0.024,99.0,109.0,98.0,13.4,1505.3,324.6,-0.7,1.8,2470.213,13.32,0.046,284.9
2019-07-05T00:30:10,42.805,6.029,-0.049,0.023,-0.043,102.0,108.0,98.0,13.4,1505.3,324.5,-0.7,1.9,2470.204,13.32,0.054,295.1
2019-07-05T00:33:11,42.805,6.029,-0.054,0.018,0.0,100.0,107.0,98.0,13.4,1505.3,326.0,-0.7,1.8,2470.191,13.33,0.056,288.4
2019-07-05T00:36:12,42.805,6.029,-0.047,0.019,-0.036,102.0,109.0,98.0,13.3,1505.3,325.8,-0.7,1.8,2470.169,13.33,0.05,292.0
2019-07-05T00:39:13,42.805,6.029,-0.053,0.008,-0.023,103.0,106.0,100.0,13.3,1505.3,324.9,-0.8,1.9,2470.143,13.33,0.053,278.6
2019-07-05T00:42:14,42.805,6.029,-0.075,0.003,-0.033,100.0,108.0,98.0,13.4,1505.3,323.2,-0.7,1.8,2470.169,13.33,0.075,272.3
2019-07-05T00:45:15,42.805,6.029,-0.037,0.019,-0.039,102.0,108.0,98.0,13.3,1505.3,325.3,-0.7,1.8,2470.176,13.33,0.041,297.2
2019-07-05T00:48:16,42.805,6.029,-0.052,0.033,-0.01,100.0,107.0,98.0,13.4,1505.3,323.8,-0.7,1.8,2470.174,13.33,0.061,302.4
2019-07-05T00:51:17,42.805,6.029,-0.033,0.026,-0.031,102.0,108.0,97.0,13.4,1505.3,326.5,-0.7,1.9,2470.124,13.33,0.042,308.2
2019-07-05T00:54:18,42.805,6.029,-0.033,0.02,-0.019,100.0,108.0,98.0,13.4,1505.3,325.0,-0.7,1.8,2470.152,13.33,0.038,301.2
2019-07-05T00:57:19,42.805,6.029,-0.037,0.034,-0.013,101.0,109.0,99.0,13.4,1505.3,327.3,-0.8,1.8,2470.176,13.33,0.05,312.6
2019-07-05T01:00:20,42.805,6.029,-0.045,0.02,0.004,102.0,107.0,99.0,13.4,1505.3,327.7,-0.8,1.9,2470.13,13.33,0.049,294.0
2019-07-05T01:03:21,42.805,6.029,-0.058,0.033,-0.03,104.0,107.0,99.0,13.4,1505.3,326.4,-0.7,1.8,2470.112,13.33,0.066,299.6
2019-07-05T01:06:22,42.805,6.029,-0.021,0.0,-0.017,102.0,107.0,99.0,13.3,1505.3,325.4,-0.7,1.9,2470.115,13.33,0.021,270.0
2019-07-05T01:09:23,42.805,6.029,-0.029,0.007,-0.017,102.0,107.0,98.0,13.3,1505.3,324.0,-0.7,1.8,2470.11,13.33,0.029,283.6
2019-07-05T01:12:24,42.805,6.029,-0.045,0.0,-0.019,101.0,108.0,100.0,13.4,1505.3,324.2,-0.7,1.9,2470.141,13.33,0.045,270.0
2019-07-05T01:15:25,42.805,6.029,-0.024,0.017,0.03,102.0,106.0,99.0,13.3,1505.3,325.7,-0.7,1.9,2470.114,13.33,0.029,305.3
2019-07-05T01:18:26,42.805,6.029,-0.034,0.031,0.008,101.0,108.0,98.0,13.4,1505.3,324.7,-0.7,1.9,2470.106,13.33,0.046,312.4
2019-07-05T01:21:27,42.805,6.029,-0.083,0.032,-0.038,101.0,106.0,98.0,13.4,1505.3,323.2,-0.7,1.8,2470.07,13.33,0.088,291.1
2019-07-05T01:24:28,42.805,6.029,-0.07,0.027,-0.029,101.0,108.0,97.0,13.4,1505.3,324.2,-0.7,1.8,2470.069,13.33,0.075,291.1
2019-07-05T01:27:29,42.805,6.029,-0.034,0.022,-0.022,102.0,107.0,97.0,13.3,1505.3,326.5,-0.7,1.9,2470.103,13.33,0.04,302.9
2019-07-05T01:30:30,42.805,6.029,-0.057,0.025,-0.032,100.0,108.0,97.0,13.4,1505.3,325.5,-0.7,1.8,2470.048,13.33,0.062,293.7
2019-07-05T01:33:31,42.805,6.029,-0.038,-0.001,-0.019,101.0,106.0,98.0,13.4,1505.3,327.8,-0.7,1.8,2470.112,13.33,0.038,268.5
2019-07-05T01:36:32,42.805,6.029,-0.047,0.012,-0.053,102.0,106.0,97.0,13.4,1505.3,328.2,-0.7,1.8,2470.083,13.33,0.048,284.3
2019-07-05T01:39:33,42.805,6.029,-0.025,0.037,0.005,102.0,107.0,98.0,13.4,1505.3,326.9,-0.7,1.8,2470.112,13.33,0.044,326.0
2019-07-05T01:42:34,42.805,6.029,-0.036,0.021,-0.002,102.0,109.0,97.0,13.3,1505.3,324.2,-0.8,1.8,2470.092,13.33,0.041,300.3
2019-07-05T01:45:35,42.805,6.029,-0.048,0.027,-0.012,101.0,107.0,99.0,13.3,1505.3,324.5,-0.7,1.8,2470.085,13.33,0.055,299.4
2019-07-05T01:48:36,42.805,6.029,-0.034,0.006,-0.003,101.0,108.0,98.0,13.3,1505.3,323.5,-0.7,1.8,2470.069,13.33,0.034,280.0
2019-07-05T01:51:37,42.805,6.029,-0.07,0.014,-0.034,102.0,108.0,96.0,13.4,1505.3,323.1,-0.7,1.8,2470.107,13.33,0.071,281.3
2019-07-05T01:54:38,42.805,6.029,-0.033,0.031,-0.027,103.0,108.0,100.0,13.3,1505.3,324.3,-0.7,1.8,2470.099,13.33,0.045,313.2
2019-07-05T01:57:39,42.805,6.029,-0.065,0.027,0.0,101.0,107.0,99.0,13.4,1505.3,322.7,-0.7,1.8,2470.036,13.33,0.07,292.6
2019-07-05T02:00:40,42.805,6.029,-0.054,0.025,-0.049,101.0,106.0,99.0,13.4,1505.3,322.9,-0.7,1.8,2470.071,13.33,0.059,294.8
2019-07-05T02:03:41,42.805,6.029,-0.052,0.022,0.0,102.0,106.0,101.0,13.3,1505.3,325.3,-0.7,1.9,2470.088,13.33,0.056,292.9
2019-07-05T02:06:42,42.805,6.029,-0.021,0.003,0.003,103.0,106.0,98.0,13.3,1505.3,326.7,-0.7,1.8,2470.031,13.33,0.021,278.1
2019-07-05T02:09:43,42.805,6.029,-0.039,0.036,-0.015,101.0,106.0,98.0,13.4,1505.3,327.4,-0.7,1.8,2470.039,13.33,0.053,312.7
2019-07-05T02:12:44,42.805,6.029,-0.045,0.018,-0.015,103.0,106.0,96.0,13.4,1505.3,323.5,-0.7,1.8,2470.061,13.33,0.048,291.8
2019-07-05T02:15:45,42.805,6.029,-0.021,0.014,0.005,101.0,105.0,100.0,13.3,1505.3,323.1,-0.7,1.8,2470.072,13.33,0.025,303.7
2019-07-05T02:18:46,42.805,6.029,-0.048,0.03,-0.016,104.0,106.0,98.0,13.4,1505.3,322.9,-0.7,1.8,2470.096,13.33,0.056,302.0
2019-07-05T02:21:47,42.805,6.029,-0.012,0.021,-0.003,103.0,107.0,98.0,13.4,1505.3,324.1,-0.7,1.8,2470.049,13.33,0.024,330.3
2019-07-05T02:24:48,42.805,6.029,-0.031,0.023,-0.002,101.0,107.0,100.0,13.4,1505.3,323.4,-0.7,1.9,2470.096,13.33,0.038,306.6
2019-07-05T02:27:49,42.805,6.029,-0.029,0.003,-0.049,104.0,107.0,98.0,13.3,1505.3,323.7,-0.7,1.9,2470.038,13.33,0.029,275.9
2019-07-05T02:30:50,42.805,6.029,-0.017,-0.003,-0.005,104.0,107.0,99.0,13.4,1505.3,327.2,-0.7,1.8,2470.065,13.33,0.017,260.0
2019-07-05T02:33:51,42.805,6.029,-0.043,0.032,-0.017,101.0,107.0,98.0,13.3,1505.3,327.1,-0.7,1.8,2470.087,13.33,0.053,306.7
2019-07-05T02:36:52,42.805,6.029,-0.032,0.017,-0.049,100.0,106.0,98.0,13.3,1505.3,325.8,-0.8,1.8,2470.029,13.33,0.036,298.0
2019-07-05T02:39:53,42.805,6.029,-0.03,0.01,-0.037,102.0,106.0,98.0,13.4,1505.3,324.5,-0.8,1.8,2470.02,13.33,0.031,288.4
2019-07-05T02:42:54,42.805,6.029,-0.012,0.025,0.003,103.0,107.0,97.0,13.3,1505.3,325.1,-0.7,1.8,2470.043,13.33,0.027,334.4
2019-07-05T02:45:55,42.805,6.029,-0.018,0.0,-0.004,102.0,108.0,97.0,13.3,1505.3,324.7,-0.7,1.9,2470.045,13.33,0.018,270.0
2019-07-05T02:48:56,42.805,6.029,-0.019,0.012,-0.019,102.0,107.0,99.0,13.3,1505.3,323.6,-0.7,1.8,2470.023,13.33,0.022,302.3
2019-07-05T02:51:57,42.805,6.029,-0.051,0.013,-0.028,102.0,105.0,98.0,13.4,1505.3,326.2,-0.7,1.9,2470.001,13.33,0.052,284.3
2019-07-05T02:54:58,42.805,6.029,-0.043,0.01,-0.009,102.0,106.0,98.0,13.4,1505.3,327.6,-0.7,1.8,2469.966,13.33,0.044,283.1
2019-07-05T02:57:59,42.805,6.029,-0.034,0.021,-0.007,101.0,107.0,99.0,13.4,1505.3,325.2,-0.7,1.8,2470.033,13.33,0.039,301.7
2019-07-05T03:01:00,42.805,6.029,-0.054,0.011,-0.019,101.0,106.0,99.0,13.4,1505.3,327.2,-0.7,1.8,2470.04,13.33,0.055,281.5
2019-07-05T03:04:01,42.805,6.029,-0.028,-0.006,-0.016,102.0,106.0,99.0,13.4,1505.3,324.6,-0.7,1.9,2470.054,13.33,0.028,257.9
2019-07-05T03:07:02,42.805,6.029,-0.048,0.018,-0.036,102.0,106.0,98.0,13.3,1505.3,324.8,-0.7,1.8,2470.049,13.33,0.051,290.6
2019-07-05T03:10:03,42.805,6.029,-0.048,0.03,-0.002,101.0,107.0,98.0,13.3,1505.3,323.0,-0.8,1.8,2470.026,13.33,0.056,302.0
2019-07-05T03:13:04,42.805,6.029,-0.026,0.008,-0.035,100.0,106.0,99.0,13.4,1505.3,325.2,-0.8,1.9,2470.079,13.33,0.027,287.1
2019-07-05T03:16:05,42.805,6.029,-0.054,0.007,-0.013,105.0,104.0,98.0,13.4,1505.3,325.9,-0.7,1.9,2470.004,13.33,0.054,277.4
2019-07-05T03:19:06,42.805,6.029,-0.025,0.016,0.026,103.0,107.0,99.0,13.4,1505.3,324.9,-0.7,1.9,2470.031,13.33,0.029,302.6
2019-07-05T03:22:07,42.805,6.029,-0.039,0.033,0.007,103.0,105.0,98.0,13.3,1505.3,324.6,-0.7,1.8,2470.025,13.33,0.051,310.2
2019-07-05T03:25:08,42.805,6.029,-0.018,0.031,-0.037,102.0,106.0,100.0,13.3,1505.3,324.6,-0.7,1.9,2470.027,13.33,0.035,329.9
2019-07-05T03:28:09,42.805,6.029,-0.017,0.016,-0.012,102.0,105.0,98.0,13.4,1505.3,327.2,-0.8,1.9,2470.016,13.33,0.023,313.3
2019-07-05T03:31:10,42.805,6.029,-0.032,0.006,-0.044,102.0,104.0,100.0,13.3,1505.3,324.3,-0.7,1.9,2470.007,13.33,0.032,280.6
2019-07-05T03:34:11,42.805,6.029,-0.027,-0.008,-0.025,103.0,105.0,99.0,13.4,1505.3,325.0,-0.7,1.8,2470.029,13.33,0.028,253.5
2019-07-05T03:37:12,42.805,6.029,-0.032,0.002,-0.009,102.0,108.0,101.0,13.4,1505.3,326.2,-0.8,1.8,2470.008,13.33,0.032,273.6
2019-07-05T03:40:13,42.805,6.029,-0.023,0.022,-0.004,102.0,108.0,99.0,13.3,1505.3,326.6,-0.7,1.9,2470.047,13.33,0.031,313.7
2019-07-05T03:43:14,42.805,6.029,-0.038,0.033,0.015,100.0,106.0,99.0,13.4,1505.3,325.8,-0.7,1.9,2470.059,13.33,0.05,311.0
2019-07-05T03:46:15,42.805,6.029,-0.013,0.023,-0.021,100.0,105.0,99.0,13.3,1505.3,327.1,-0.7,1.8,2470.006,13.33,0.026,330.5
2019-07-05T03:49:16,42.805,6.029,-0.025,0.014,-0.007,100.0,107.0,98.0,13.3,1505.3,324.9,-0.7,1.9,2469.999,13.33,0.028,299.3
2019-07-05T03:52:17,42.805,6.029,-0.069,-0.005,-0.035,102.0,109.0,98.0,13.4,1505.3,322.9,-0.7,1.8,2470.04,13.33,0.069,265.9
2019-07-05T03:55:18,42.805,6.029,-0.039,0.03,-0.019,103.0,107.0,100.0,13.3,1505.3,326.3,-0.7,1.8,2470.048,13.33,0.049,307.6
2019-07-05T03:58:19,42.805,6.029,-0.051,0.013,0.008,101.0,105.0,100.0,13.4,1505.3,326.4,-0.8,1.8,2470.031,13.33,0.052,284.3
2019-07-05T04:01:20,42.805,6.029,-0.029,0.016,-0.028,102.0,105.0,98.0,13.3,1505.3,326.3,-0.7,1.8,2470.019,13.33,0.033,298.9
2019-07-05T04:04:21,42.805,6.029,-0.028,0.023,-0.008,101.0,104.0,98.0,13.3,1505.3,325.2,-0.7,1.8,2470.009,13.33,0.036,309.4
2019-07-05T04:07:22,42.805,6.029,-0.039,0.0,-0.009,102.0,105.0,99.0,13.3,1505.3,324.9,-0.7,1.8,2470.004,13.33,0.039,270.0
2019-07-05T04:10:23,42.805,6.029,-0.054,0.008,-0.035,102.0,108.0,100.0,13.4,1505.3,325.7,-0.7,1.9,2470.036,13.33,0.054,278.4
2019-07-05T04:13:24,42.805,6.029,-0.018,0.027,-0.013,103.0,105.0,100.0,13.4,1505.3,325.7,-0.7,1.8,2470.045,13.33,0.032,326.3
2019-07-05T04:16:25,42.805,6.029,-0.046,0.014,-0.037,103.0,106.0,100.0,13.4,1505.3,327.9,-0.7,1.9,2470.022,13.33,0.048,286.9
2019-07-05T04:19:26,42.805,6.029,-0.013,-0.002,-0.009,102.0,107.0,100.0,13.4,1505.3,327.2,-0.8,1.8,2470.002,13.33,0.013,261.3
2019-07-05T04:22:27,42.805,6.029,-0.047,0.0,-0.007,103.0,108.0,99.0,13.4,1505.3,325.4,-0.7,1.8,2470.042,13.33,0.047,270.0
2019-07-05T04:25:28,42.805,6.029,-0.04,0.029,-0.041,100.0,105.0,99.0,13.3,1505.3,325.5,-0.7,1.8,2469.971,13.33,0.049,305.9
2019-07-05T04:28:29,42.805,6.029,-0.051,0.016,-0.037,102.0,108.0,98.0,13.3,1505.3,326.4,-0.7,1.8,2470.09,13.33,0.053,287.4
2019-07-05T04:31:30,42.805,6.029,-0.03,0.007,0.0,101.0,106.0,99.0,13.3,1505.3,327.1,-0.7,1.9,2470.011,13.33,0.03,283.1
2019-07-05T04:34:31,42.805,6.029,-0.045,0.033,0.004,101.0,106.0,97.0,13.4,1505.3,325.2,-0.7,1.8,2470.02,13.33,0.055,306.3
2019-07-05T04:37:32,42.805,6.029,-0.048,0.022,-0.024,103.0,107.0,98.0,13.4,1505.3,326.0,-0.7,1.9,2470.005,13.33,0.052,294.6
2019-07-05T04:40:33,42.805,6.029,-0.066,0.001,-0.041,102.0,107.0,99.0,13.3,1505.3,326.0,-0.7,1.8,2470.05,13.33,0.066,270.9
2019-07-05T04:43:34,42.805,6.029,-0.032,0.02,-0.01,102.0,105.0,98.0,13.3,1505.3,324.9,-0.7,1.8,2470.037,13.33,0.037,302.0
2019-07-05T04:46:35,42.805,6.029,-0.049,0.02,-0.023,103.0,108.0,98.0,13.3,1505.3,326.6,-0.7,1.8,2470.003,13.33,0.052,292.2
2019-07-05T04:49:36,42.805,6.029,-0.039,0.019,-0.023,101.0,106.0,98.0,13.3,1505.3,323.1,-0.7,1.8,2470.009,13.33,0.043,296.0
2019-07-05T04:52:37,42.805,6.029,-0.055,0.007,-0.013,102.0,107.0,99.0,13.4,1505.3,324.0,-0.7,1.8,2470.003,13.33,0.055,277.3
2019-07-05T04:55:38,42.805,6.029,-0.042,0.016,-0.017,102.0,105.0,99.0,13.4,1505.3,326.7,-0.7,1.8,2470.039,13.33,0.044,290.9
2019-07-05T04:58:39,42.805,6.029,-0.029,0.029,-0.004,101.0,108.0,99.0,13.4,1505.3,327.2,-0.7,1.8,2470.064,13.33,0.041,315.0
2019-07-05T05:01:40,42.805,6.029,-0.058,0.0,-0.021,102.0,108.0,99.0,13.4,1505.3,326.4,-0.7,1.8,2470.013,13.33,0.057,270.0
2019-07-05T05:04:41,42.805,6.029,-0.037,0.019,-0.002,100.0,107.0,98.0,13.3,1505.3,323.7,-0.7,1.9,2469.995,13.33,0.041,297.2
2019-07-05T05:07:42,42.805,6.029,-0.036,0.003,-0.05,102.0,106.0,98.0,13.4,1505.3,326.3,-0.7,1.8,2470.045,13.33,0.036,274.8
2019-07-05T05:10:43,42.805,6.029,-0.047,0.0,-0.026,103.0,106.0,100.0,13.4,1505.3,324.8,-0.7,1.8,2470.027,13.33,0.047,270.0
2019-07-05T05:13:44,42.805,6.029,-0.068,0.015,-0.04,103.0,108.0,98.0,13.3,1505.3,323.8,-0.8,1.8,2470.048,13.33,0.069,282.4
2019-07-05T05:16:45,42.805,6.029,-0.038,-0.008,-0.042,101.0,107.0,97.0,13.4,1505.3,325.6,-0.7,1.8,2470.016,13.33,0.038,258.1
2019-07-05T05:19:46,42.805,6.029,0.006,0.007,-0.032,100.0,109.0,98.0,13.4,1505.3,327.2,-0.7,1.9,2470.019,13.33,0.009,40.6
2019-07-05T05:22:47,42.805,6.029,-0.058,0.007,-0.038,103.0,108.0,99.0,13.3,1505.3,323.3,-0.8,1.8,2470.051,13.33,0.058,276.9
2019-07-05T05:25:48,42.805,6.029,-0.037,0.006,-0.014,102.0,105.0,99.0,13.4,1505.3,323.6,-0.7,1.8,2470.105,13.33,0.037,279.2
2019-07-05T05:28:49,42.805,6.029,-0.065,0.003,-0.01,105.0,107.0,99.0,13.4,1505.3,325.5,-0.7,1.8,2470.019,13.33,0.065,272.6
2019-07-05T05:31:50,42.805,6.029,-0.019,0.017,-0.007,104.0,107.0,103.0,13.4,1505.3,328.2,-0.7,1.8,2470.126,13.33,0.025,311.8
2019-07-05T05:34:51,42.805,6.029,-0.041,0.019,-0.022,103.0,107.0,98.0,13.4,1505.3,323.3,-0.7,1.8,2470.07,13.33,0.045,294.9
2019-07-05T05:37:52,42.805,6.029,-0.043,0.018,-0.007,102.0,107.0,99.0,13.3,1505.3,327.1,-0.7,1.8,2470.049,13.33,0.046,292.7
2019-07-05T05:40:53,42.805,6.029,-0.016,-0.012,0.021,102.0,106.0,98.0,13.4,1505.3,324.8,-0.7,1.9,2470.047,13.33,0.02,233.1
2019-07-05T05:43:54,42.805,6.029,-0.02,0.009,-0.015,100.0,107.0,99.0,13.3,1505.3,328.0,-0.7,1.9,2470.061,13.33,0.021,294.2
2019-07-05T05:46:55,42.805,6.029,-0.032,0.007,-0.022,102.0,109.0,98.0,13.4,1505.3,326.2,-0.7,1.8,2470.073,13.33,0.032,282.3
2019-07-05T05:49:56,42.805,6.029,-0.017,0.012,0.018,103.0,106.0,98.0,13.4,1505.3,323.5,-0.7,1.8,2470.048,13.33,0.02,305.2
2019-07-05T05:52:57,42.805,6.029,-0.051,0.003,-0.032,103.0,106.0,98.0,13.3,1505.3,326.3,-0.7,1.8,2470.061,13.33,0.051,273.4
2019-07-05T05:55:58,42.805,6.029,-0.024,-0.004,-0.02,102.0,107.0,99.0,13.3,1505.3,327.7,-0.7,1.8,2470.064,13.33,0.024,260.5
2019-07-05T05:58:59,42.805,6.029,-0.049,0.001,0.015,102.0,107.0,98.0,13.3,1505.3,327.1,-0.7,1.8,2470.046,13.33,0.049,271.2
2019-07-05T06:02:00,42.805,6.029,-0.036,-0.009,-0.027,102.0,106.0,97.0,13.4,1505.3,325.6,-0.7,1.9,2470.08,13.33,0.037,256.0
2019-07-05T06:05:01,42.805,6.029,-0.045,0.017,-0.012,101.0,105.0,99.0,13.4,1505.3,325.1,-0.7,1.8,2470.07,13.33,0.048,290.7
2019-07-05T06:08:02,42.805,6.029,-0.034,0.008,-0.007,102.0,106.0,99.0,13.3,1505.3,324.8,-0.7,1.8,2470.005,13.33,0.034,283.2
2019-07-05T06:11:03,42.805,6.029,-0.045,-0.004,-0.036,102.0,106.0,97.0,13.4,1505.3,325.0,-0.7,1.8,2470.065,13.33,0.045,264.9
2019-07-05T06:14:04,42.805,6.029,-0.053,0.01,-0.034,103.0,105.0,98.0,13.3,1505.3,325.3,-0.7,1.8,2470.103,13.33,0.053,280.7
2019-07-05T06:17:05,42.805,6.029,-0.021,0.008,0.01,101.0,105.0,98.0,13.4,1505.3,324.8,-0.7,1.8,2470.074,13.33,0.022,290.9
2019-07-05T06:20:06,42.805,6.029,-0.045,0.003,-0.042,102.0,105.0,99.0,13.4,1505.3,325.3,-0.7,1.9,2470.096,13.33,0.045,273.8
2019-07-05T06:23:07,42.805,6.029,-0.022,0.022,-0.007,101.0,106.0,99.0,13.4,1505.3,327.9,-0.7,1.9,2470.101,13.33,0.031,315.0
2019-07-05T06:26:08,42.805,6.029,-0.037,0.014,-0.021,102.0,105.0,99.0,13.4,1505.3,322.8,-0.7,1.8,2470.106,13.33,0.039,290.7
2019-07-05T06:29:09,42.805,6.029,-0.024,0.029,-0.004,101.0,106.0,99.0,13.3,1505.3,326.7,-0.7,1.8,2470.064,13.33,0.037,320.4
2019-07-05T06:32:10,42.805,6.029,-0.011,0.03,0.0,102.0,105.0,99.0,13.4,1505.3,325.1,-0.8,1.8,2470.061,13.33,0.031,339.9
2019-07-05T06:35:11,42.805,6.029,-0.028,0.004,-0.022,103.0,106.0,99.0,13.3,1505.3,324.1,-0.7,1.8,2470.093,13.33,0.028,278.1
2019-07-05T06:38:12,42.805,6.029,-0.049,0.011,-0.015,102.0,107.0,99.0,13.4,1505.3,324.1,-0.8,1.8,2470.067,13.33,0.05,282.7
2019-07-05T06:41:13,42.805,6.029,-0.038,0.014,-0.016,102.0,107.0,97.0,13.4,1505.3,325.7,-0.7,1.8,2470.127,13.33,0.04,290.2
2019-07-05T06:44:14,42.805,6.029,-0.02,0.005,-0.001,100.0,106.0,98.0,13.4,1505.3,323.2,-0.8,1.9,2470.125,13.33,0.02,284.0
2019-07-05T06:47:15,42.805,6.029,-0.027,0.014,-0.024,103.0,104.0,98.0,13.4,1505.3,324.9,-0.7,1.8,2470.139,13.33,0.03,297.4
2019-07-05T06:50:16,42.805,6.029,-0.02,-0.001,0.01,101.0,106.0,100.0,13.4,1505.3,323.0,-0.7,1.9,2470.118,13.33,0.02,267.1
2019-07-05T06:53:17,42.805,6.029,-0.036,0.0,-0.039,100.0,106.0,99.0,13.4,1505.3,324.4,-0.7,1.8,2470.085,13.33,0.036,270.0
2019-07-05T06:56:18,42.805,6.029,-0.08,0.012,-0.039,102.0,105.0,98.0,13.4,1505.3,327.9,-0.7,1.8,2470.09,13.33,0.08,278.5
2019-07-05T06:59:19,42.805,6.029,-0.048,0.012,-0.003,102.0,108.0,99.0,13.3,1505.3,324.8,-0.7,1.8,2470.187,13.33,0.049,284.0
2019-07-05T07:02:20,42.805,6.029,-0.021,0.027,0.01,102.0,106.0,99.0,13.3,1505.3,325.0,-0.7,1.8,2470.115,13.33,0.034,322.1
2019-07-05T07:05:21,42.805,6.029,-0.037,0.023,-0.027,100.0,105.0,100.0,13.3,1505.3,325.1,-0.7,1.8,2470.131,13.33,0.043,301.9
2019-07-05T07:08:22,42.805,6.029,-0.047,0.019,-0.013,102.0,106.0,98.0,13.3,1505.3,325.0,-0.7,1.8,2470.118,13.33,0.05,292.0
2019-07-05T07:11:23,42.805,6.029,-0.055,0.023,-0.028,102.0,106.0,97.0,13.3,1505.3,327.7,-0.7,1.9,2470.133,13.33,0.059,292.7
2019-07-05T07:14:24,42.805,6.029,-0.043,0.015,-0.007,101.0,106.0,98.0,13.4,1505.3,327.7,-0.8,1.8,2470.163,13.33,0.045,289.2
2019-07-05T07:17:25,42.805,6.029,-0.037,0.015,-0.052,101.0,106.0,100.0,13.4,1505.3,326.3,-0.7,1.8,2470.11,13.33,0.039,292.1
2019-07-05T07:20:26,42.805,6.029,-0.025,0.015,-0.047,104.0,106.0,98.0,13.3,1505.3,324.8,-0.7,1.8,2470.115,13.33,0.029,301.0
2019-07-05T07:23:27,42.805,6.029,-0.029,-0.003,-0.005,100.0,107.0,99.0,13.3,1505.3,325.2,-0.7,1.8,2470.132,13.33,0.029,264.1
2019-07-05T07:26:28,42.805,6.029,-0.038,0.001,-0.035,101.0,106.0,98.0,13.3,1505.3,326.8,-0.7,1.8,2470.146,13.33,0.038,271.5
2019-07-05T07:29:29,42.805,6.029,-0.027,0.044,0.028,102.0,105.0,98.0,13.4,1505.3,325.4,-0.7,1.9,2470.098,13.33,0.051,328.5
2019-07-05T07:32:30,42.805,6.029,-0.06,0.008,-0.035,101.0,107.0,99.0,13.4,1505.3,327.1,-0.7,1.8,2470.153,13.33,0.06,277.6
2019-07-05T07:35:31,42.805,6.029,-0.036,0.019,-0.008,103.0,107.0,98.0,13.4,1505.3,322.9,-0.7,1.8,2470.136,13.33,0.04,297.8
2019-07-05T07:38:32,42.805,6.029,-0.051,0.006,-0.035,100.0,106.0,99.0,13.4,1505.3,326.6,-0.7,1.9,2470.167,13.33,0.051,276.7
2019-07-05T07:41:33,42.805,6.029,-0.027,0.009,-0.016,101.0,106.0,99.0,13.4,1505.3,325.6,-0.7,1.8,2470.164,13.33,0.028,288.4
2019-07-05T07:44:34,42.805,6.029,-0.032,0.007,-0.018,101.0,108.0,98.0,13.3,1505.3,326.4,-0.7,1.8,2470.157,13.33,0.032,282.3
2019-07-05T07:47:35,42.805,6.029,-0.022,0.015,-0.004,103.0,105.0,97.0,13.4,1505.3,326.5,-0.8,1.9,2470.085,13.33,0.026,304.3
2019-07-05T07:50:36,42.805,6.029,-0.02,0.018,-0.017,102.0,105.0,97.0,13.4,1505.3,324.1,-0.8,1.8,2470.162,13.33,0.026,312.0
2019-07-05T07:53:37,42.805,6.029,-0.039,0.004,-0.017,101.0,106.0,99.0,13.4,1505.3,326.5,-0.7,1.9,2470.165,13.33,0.039,275.9
2019-07-05T07:56:38,42.805,6.029,-0.027,0.015,-0.051,102.0,106.0,99.0,13.4,1505.3,325.5,-0.7,1.9,2470.13,13.33,0.03,299.1
2019-07-05T07:59:39,42.805,6.029,-0.031,0.015,-0.035,101.0,107.0,98.0,13.4,1505.3,325.9,-0.7,1.8,2470.159,13.33,0.034,295.8
2019-07-05T08:02:40,42.805,6.029,-0.05,0.002,-0.041,101.0,107.0,99.0,13.3,1505.3,326.9,-0.7,1.8,2470.164,13.33,0.05,272.3
2019-07-05T08:05:41,42.805,6.029,-0.044,0.018,-0.063,105.0,106.0,98.0,13.4,1505.3,326.9,-0.7,1.8,2470.106,13.33,0.047,292.2
2019-07-05T08:08:42,42.805,6.029,-0.053,-0.012,-0.034,102.0,106.0,99.0,13.3,1505.3,325.8,-0.7,1.8,2470.114,13.33,0.054,257.2
2019-07-05T08:11:43,42.805,6.029,-0.039,0.018,-0.002,103.0,106.0,98.0,13.4,1505.3,327.0,-0.7,1.8,2470.164,13.33,0.042,294.8
2019-07-05T08:14:44,42.805,6.029,-0.05,0.001,-0.038,103.0,107.0,98.0,13.3,1505.3,326.3,-0.7,1.8,2470.122,13.33,0.05,271.1
2019-07-05T08:17:45,42.805,6.029,-0.038,0.015,-0.004,101.0,107.0,97.0,13.3,1505.3,327.6,-0.7,1.8,2470.199,13.33,0.04,291.5
2019-07-05T08:20:46,42.805,6.029,-0.035,0.01,-0.014,102.0,106.0,99.0,13.4,1505.3,327.7,-0.7,1.8,2470.108,13.33,0.036,285.9
2019-07-05T08:23:47,42.805,6.029,-0.038,0.014,0.007,102.0,105.0,99.0,13.4,1505.3,323.3,-0.7,1.9,2470.157,13.33,0.04,290.2
2019-07-05T08:26:48,42.805,6.029,-0.034,0.015,-0.022,102.0,106.0,99.0,13.3,1505.3,324.5,-0.8,1.8,2470.122,13.33,0.037,293.8
2019-07-05T08:29:49,42.805,6.029,-0.06,0.018,-0.006,101.0,108.0,99.0,13.4,1505.3,325.0,-0.7,1.9,2470.144,13.33,0.062,286.7
2019-07-05T08:32:50,42.805,6.029,-0.047,0.005,-0.055,102.0,106.0,100.0,13.3,1505.3,325.7,-0.7,1.8,2470.151,13.33,0.047,276.1
2019-07-05T08:35:51,42.805,6.029,-0.05,0.001,-0.038,100.0,106.0,98.0,13.4,1505.3,325.6,-0.7,1.9,2470.15,13.33,0.05,271.1
2019-07-05T08:38:52,42.805,6.029,-0.024,0.008,-0.004,103.0,107.0,99.0,13.4,1505.3,327.8,-0.7,1.9,2470.169,13.33,0.025,288.4
2019-07-05T08:41:53,42.805,6.029,-0.055,0.014,-0.022,100.0,109.0,99.0,13.3,1505.3,323.4,-0.7,1.8,2470.174,13.33,0.056,284.3
2019-07-05T08:44:54,42.805,6.029,-0.031,0.023,-0.021,102.0,106.0,99.0,13.3,1505.3,324.9,-0.7,1.8,2470.143,13.33,0.038,306.6
2019-07-05T08:47:55,42.805,6.029,-0.042,0.008,0.002,103.0,107.0,99.0,13.4,1505.3,326.0,-0.7,1.8,2470.135,13.33,0.042,280.8
2019-07-05T08:50:56,42.805,6.029,-0.051,-0.001,-0.031,103.0,108.0,98.0,13.4,1505.3,327.0,-0.7,1.8,2470.172,13.33,0.051,268.9
2019-07-05T08:53:57,42.805,6.029,-0.043,0.016,-0.044,103.0,107.0,99.0,13.4,1505.3,327.9,-0.7,1.8,2470.146,13.33,0.045,290.4
2019-07-05T08:56:58,42.805,6.029,-0.017,0.018,-0.012,104.0,108.0,100.0,13.3,1505.3,325.0,-0.7,1.8,2470.139,13.33,0.024,316.6
2019-07-05T08:59:59,42.805,6.029,-0.046,0.0,-0.018,105.0,108.0,99.0,13.3,1505.3,324.1,-0.7,1.8,2470.124,13.33,0.046,270.0
2019-07-05T09:03:00,42.805,6.029,-0.037,0.015,-0.029,100.0,110.0,101.0,13.3,1505.3,324.4,-0.7,1.8,2470.156,13.33,0.039,292.1
2019-07-05T09:06:01,42.805,6.029,-0.048,0.011,-0.011,101.0,107.0,100.0,13.4,1505.3,325.8,-0.8,1.8,2470.101,13.33,0.049,282.9
2019-07-05T09:09:02,42.805,6.029,-0.066,0.016,-0.031,103.0,106.0,99.0,13.4,1505.3,327.0,-0.7,1.9,2470.144,13.33,0.067,283.6
2019-07-05T09:12:03,42.805,6.029,-0.041,0.011,-0.017,101.0,106.0,99.0,13.3,1505.3,325.8,-0.8,1.8,2470.126,13.33,0.042,285.0
2019-07-05T09:15:04,42.805,6.029,-0.045,0.016,-0.026,103.0,107.0,98.0,13.3,1505.3,325.7,-0.7,1.8,2470.173,13.33,0.047,289.6
2019-07-05T09:18:05,42.805,6.029,-0.058,0.0,-0.025,101.0,108.0,99.0,13.4,1505.3,324.5,-0.7,1.8,2470.143,13.33,0.057,270.0
2019-07-05T09:21:06,42.805,6.029,-0.049,0.014,-0.026,102.0,106.0,100.0,13.4,1505.3,326.0,-0.7,1.8,2470.177,13.33,0.05,285.9
2019-07-05T09:24:07,42.805,6.029,-0.049,0.009,-0.014,102.0,107.0,99.0,13.4,1505.3,323.7,-0.7,1.8,2470.134,13.33,0.049,280.4
2019-07-05T09:27:08,42.805,6.029,-0.044,0.017,0.0,102.0,105.0,99.0,13.4,1505.3,326.5,-0.7,1.9,2470.162,13.33,0.047,291.1
2019-07-05T09:30:09,42.805,6.029,-0.043,0.015,-0.04,103.0,107.0,98.0,13.4,1505.3,326.4,-0.7,1.9,2470.154,13.33,0.045,289.2
2019-07-05T09:33:10,42.805,6.029,-0.077,0.027,-0.042,102.0,107.0,98.0,13.3,1505.3,327.5,-0.7,1.8,2470.139,13.33,0.081,289.3
2019-07-05T09:36:11,42.805,6.029,-0.064,0.01,-0.007,102.0,108.0,99.0,13.3,1505.3,323.0,-0.7,1.8,2470.139,13.33,0.064,278.9
2019-07-05T09:39:12,42.805,6.029,-0.057,0.003,-0.009,101.0,108.0,98.0,13.4,1505.3,326.3,-0.7,1.8,2470.181,13.33,0.057,273.0